This is the latest recevied weather packets stored in our database for station/object KB1QVF. If no packets are shown the sender has not sent any weather packets the latest 10 day(s).
| Time | Temp. | Humidity | Pressure | Rain* | Wind** | Luminosity | Snow |
|---|---|---|---|---|---|---|---|
| 1777764831 | 8.89° C | 95% | 1012.2 hPa | 0 mm | - | 9 W/m² | - |
| 1777764529 | 8.89° C | 95% | 1011.9 hPa | 0 mm | - | 13 W/m² | - |
| 1777764225 | 8.89° C | 95% | 1012.2 hPa | 0 mm | - | 14 W/m² | - |
| 1777763922 | 8.89° C | 95% | 1012.3 hPa | 0 mm | - | 15 W/m² | - |
| 1777763619 | 8.89° C | 95% | 1012.1 hPa | 0 mm | - | 13 W/m² | - |
| 1777763317 | 8.89° C | 94% | 1012 hPa | 0 mm | - | 12 W/m² | - |
| 1777763016 | 8.89° C | 95% | 1012.1 hPa | 0 mm | - | 14 W/m² | - |
| 1777762712 | 8.89° C | 94% | 1012.1 hPa | 0 mm | - | 17 W/m² | - |
| 1777762409 | 8.89° C | 94% | 1012.4 hPa | 0 mm | - | 17 W/m² | - |
| 1777762105 | 8.89° C | 94% | 1012.3 hPa | 0 mm | - | 21 W/m² | - |
| 1777761802 | 8.89° C | 94% | 1012.1 hPa | 0 mm | - | 32 W/m² | - |
| 1777761499 | 8.89° C | 94% | 1011.9 hPa | 0 mm | - | 30 W/m² | - |
| 1777761197 | 8.89° C | 94% | 1011.9 hPa | 0 mm | - | 27 W/m² | - |
| 1777760895 | 8.89° C | 94% | 1012 hPa | 0 mm | - | 24 W/m² | - |
| 1777760592 | 8.89° C | 94% | 1012 hPa | 0 mm | - | 24 W/m² | - |
| 1777760288 | 9.44° C | 94% | 1012.2 hPa | 0 mm | - | 36 W/m² | - |
| 1777759984 | 8.89° C | 94% | 1011.8 hPa | 0 mm | - | 41 W/m² | - |
| 1777759681 | 8.89° C | 94% | 1011.8 hPa | 0 mm | - | 62 W/m² | - |
| 1777759377 | 9.44° C | 94% | 1011.9 hPa | 0 mm | - | 65 W/m² | - |
| 1777759074 | 8.89° C | 94% | 1011.9 hPa | 0 mm | - | 59 W/m² | - |
| 1777758771 | 8.89° C | 93% | 1012.1 hPa | 0 mm | - | 65 W/m² | - |
| 1777758468 | 8.89° C | 93% | 1012.3 hPa | 0 mm | - | 36 W/m² | - |
| 1777758165 | 8.89° C | 93% | 1012.2 hPa | 0 mm | - | 48 W/m² | - |
| 1777757862 | 8.89° C | 93% | 1012 hPa | 1.27 mm | - | 48 W/m² | - |
| 1777757559 | 8.89° C | 92% | 1012.4 hPa | 1.27 mm | - | 33 W/m² | - |
* Rain latest hour (hover to see other rain measurements)
** Current wind speed in m/s (hover to see current wind gust speed)